Weather History for Chicago DuPage, IL

Change the Weather History Date:

Friday, November 8, 2013

  Actual Average Record
Temperature  
Mean Temperature 36 °F 44 °F  
Max Temperature 47 °F 53 °F 73 °F (1999)
Min Temperature 24 °F 35 °F 19 °F (2003)
Degree Days  
Heating Degree Days 29 21  
Month to date heating degree days 178 157  
Since 1 July heating degree days 741 668  
Cooling Degree Days 0 0  
Month to date cooling degree days 0 0  
Year to date cooling degree days 745 814  
Moisture  
Dew Point 29 °F    
Average Humidity 73    
Maximum Humidity 96    
Minimum Humidity 52    
Precipitation  
Precipitation 0.00 in 0.10 in 1.14 in (2011)
Month to date precipitation 0.84 0.85  
Year to date precipitation 32.81 32.96  
Sea Level Pressure  
Sea Level Pressure 30.21 in    
Wind  
Wind Speed 8 mph (SSW)    
Max Wind Speed 23 mph    
Max Gust Speed 32 mph    
Visibility 9 miles    
Events      
T = Trace of Precipitation, MM = Missing Value Source: NWS Daily Summary

Daily Weather History Graph

Daily Weather History Graph

Search for Another Location

Airport:

Trip Planner

Search our weather history database for the weather conditions in past years. The results will help you decide how hot, cold, wet, or windy it might be!

Date:

Astronomy

Nov. 08, 2013 Rise Set
Actual Time 6:34 AM CST 4:38 PM CST
Civil Twilight 6:04 AM CST 5:08 PM CST
Nautical Twilight 5:31 AM CST 5:41 PM CST
Astronomical Twilight 4:58 AM CST 6:14 PM CST
Moon 11:29 AM CST (11/8) 9:59 PM CST (11/8)
Length of Visible Light 11h 03m
Length of Day
10h 04m
Waxing Crescent, 33% of the Moon is Illuminated
Nov 8
Waxing Crescent
Nov 9
First Quarter
Nov 17
Full
Nov 25
Last Quarter
Dec 2
New

Hourly Weather History & Observations

Time (CST) Temp. Windchill Dew Point Humidity Pressure Visibility Wind Dir Wind Speed Gust Speed Precip Events Conditions
12:52 AM 32.0 °F 25.6 °F 28.0 °F 85% 30.26 in 10.0 mi WNW 6.9 mph - N/A   Clear
1:52 AM 30.0 °F 25.2 °F 27.0 °F 88% 30.27 in 10.0 mi West 4.6 mph - N/A   Clear
2:52 AM 28.9 °F 25.2 °F 27.0 °F 92% 30.28 in 10.0 mi WNW 3.5 mph - N/A   Clear
3:52 AM 28.0 °F - 25.0 °F 88% 30.29 in 9.0 mi Calm Calm - N/A   Clear
4:52 AM 26.1 °F - 23.0 °F 88% 30.30 in 7.0 mi Calm Calm - N/A   Clear
5:25 AM 26.6 °F - 24.8 °F 93% 30.28 in 1.8 mi Calm Calm - N/A   Clear
5:37 AM 26.6 °F - 24.8 °F 93% 30.28 in 7.0 mi Calm Calm - N/A   Clear
5:52 AM 26.1 °F 21.9 °F 25.0 °F 96% 30.32 in 7.0 mi SSW 3.5 mph - N/A   Clear
6:52 AM 25.0 °F - 24.1 °F 96% 30.33 in 7.0 mi Calm Calm - N/A   Clear
7:52 AM 30.0 °F 26.5 °F 28.0 °F 92% 30.35 in 7.0 mi SW 3.5 mph - N/A   Clear
8:52 AM 34.0 °F - 30.0 °F 85% 30.35 in 8.0 mi Calm Calm - N/A   Clear
9:52 AM 37.9 °F 32.1 °F 30.9 °F 76% 30.33 in 8.0 mi South 8.1 mph - N/A   Clear
10:52 AM 42.1 °F 38.4 °F 30.9 °F 65% 30.31 in 10.0 mi Variable 5.8 mph - N/A   Clear
11:52 AM 44.1 °F 40.1 °F 30.9 °F 60% 30.27 in 10.0 mi SSW 6.9 mph - N/A   Clear
12:52 PM 46.0 °F 41.4 °F 30.0 °F 54% 30.24 in 10.0 mi SSW 9.2 mph - N/A   Clear
1:52 PM 46.0 °F 42.5 °F 30.9 °F 56% 30.21 in 10.0 mi SSW 6.9 mph - N/A   Clear
2:52 PM 46.9 °F - 30.9 °F 54% 30.19 in 10.0 mi South 10.4 mph - N/A   Partly Cloudy
3:52 PM 46.0 °F 41.4 °F 30.0 °F 54% 30.16 in 10.0 mi SSE 9.2 mph - N/A   Mostly Cloudy
4:52 PM 45.0 °F 39.3 °F 28.0 °F 52% 30.13 in 10.0 mi SSE 11.5 mph - N/A   Clear
5:52 PM 43.0 °F 37.7 °F 30.0 °F 60% 30.11 in 10.0 mi SSE 9.2 mph - N/A   Clear
6:52 PM 44.1 °F 37.7 °F 30.9 °F 60% 30.08 in 10.0 mi SSE 12.7 mph - N/A   Clear
7:52 PM 44.1 °F 36.5 °F 32.0 °F 63% 30.08 in 10.0 mi South 17.3 mph - N/A   Partly Cloudy
8:52 PM 45.0 °F 38.5 °F 30.9 °F 58% 30.06 in 10.0 mi South 13.8 mph 21.9 mph N/A   Clear
9:52 PM 45.0 °F 37.6 °F 30.9 °F 58% 30.04 in 10.0 mi South 17.3 mph 27.6 mph N/A   Scattered Clouds
10:52 PM 45.0 °F 37.6 °F 32.0 °F 60% 29.99 in 10.0 mi South 17.3 mph - N/A   Overcast
11:52 PM 45.0 °F 37.1 °F 32.0 °F 60% 29.95 in 10.0 mi South 19.6 mph 27.6 mph N/A   Clear